Location: Moscow
(55.7500°N, 37.5830°E)
Time: 01:10:47
(UTC+03:00)

Vanguard 3 - Pass Details

Date: 08 December 2021
Orbit: 508 x 3260 km, 33.3° (Epoch: 17 January)

Event Time Altitude Azimuth Distance (km) Brightness Sun altitude
Rises 06:49:18 0° 259° (W) 7,212 - -14.9°
Exits shadow 06:51:35 - 256° (WSW) 6,810 11.3 -14.6°
Reaches altitude 10° 06:55:11 10° 250° (WSW) 6,189 11.2 -14.1°
Maximum altitude 07:09:51 29° 202° (SSW) 4,322 10.8 -12.2°
Drops below altitude 10° 07:21:23 10° 150° (SSE) 4,814 12.0 -10.7°
Sets 07:25:15 0° 139° (SE) 5,434 12.7 -10.2°
